FW6528 Weather Reports


time (UTC)temp
F
wind
direction
speed
knots
gust
knots
rain 1hr
in
rain 24hr
in
rain mn
in
humidity
%
barometer
mb
20260506033546 69 0 0.0 2.6 0.00 0.00 0.00 55 1013.6
20260506033050 69 0 0.9 2.6 0.00 0.00 0.00 55 1013.8
20260506032548 69 0 0.0 1.7 0.00 0.00 0.00 54 1013.7
20260506032047 69 0 0.0 1.7 0.00 0.00 0.00 53 1013.6
20260506031552 69 0 0.0 1.7 0.00 0.00 0.00 53 1013.6
20260506031046 69 0 0.0 1.7 0.00 0.00 0.00 52 1013.7
20260506030546 69 0 0.0 2.6 0.00 0.00 0.00 51 1013.8
20260506025548 69 248 0.0 2.6 0.00 0.00 0.00 51 1013.9
20260506025047 69 0 0.0 0.9 0.00 0.00 0.00 53 1013.9
20260506024555 69 0 0.0 0.9 0.00 0.00 0.00 51 1013.9
20260506024047 69 0 0.0 1.7 0.00 0.00 0.00 52 1014.1
20260506023547 69 0 0.0 1.7 0.00 0.00 0.00 53 1014.0
20260506023051 69 0 0.0 1.7 0.00 0.00 0.00 53 1013.9
20260506022548 69 0 0.0 0.9 0.00 0.00 0.00 54 1013.8
20260506022048 69 0 0.0 0.9 0.00 0.00 0.00 53 1013.8
20260506021559 69 0 0.0 2.6 0.00 0.00 0.00 53 1013.7
20260506021048 69 0 0.0 2.6 0.00 0.00 0.00 53 1013.8
20260506020549 70 0 0.0 0.9 0.00 0.00 0.00 52 1013.7
20260506020054 70 0 0.0 1.7 0.00 0.00 0.00 52 1013.5
20260506015547 70 0 0.0 1.7 0.00 0.00 0.00 51 1013.8
20260506015050 70 0 0.0 2.6 0.00 0.00 0.00 52 1013.6
20260506014559 70 0 0.0 2.6 0.00 0.00 0.00 52 1013.4
20260506014048 70 0 0.0 2.6 0.00 0.00 0.00 52 1013.7
20260506013548 70 0 0.0 0.9 0.00 0.00 0.00 52 1013.5
20260506013055 70 0 0.0 0.9 0.00 0.00 0.00 52 1013.7
20260506012548 71 0 0.0 0.9 0.00 0.00 0.00 51 1013.6
20260506012047 70 0 0.0 2.6 0.00 0.00 0.00 52 1013.6
20260506011553 70 269 0.0 4.3 0.00 0.00 0.00 52 1013.4
20260506011049 70 0 0.0 5.2 0.00 0.00 0.00 51 1013.2
20260506010547 70 0 0.0 5.2 0.00 0.00 0.00 52 1013.4
20260506010101 69 0 0.0 0.9 0.00 0.00 0.00 53 1013.3
20260506005548 70 0 0.0 0.9 0.00 0.00 0.00 53 1013.3
20260506005047 70 0 0.0 0.9 0.00 0.00 0.00 52 1013.4
20260506004555 70 0 0.0 0.9 0.00 0.00 0.00 51 1013.4
20260506004047 71 0 0.0 3.5 0.00 0.00 0.00 50 1013.4
20260506003547 72 0 0.0 3.5 0.00 0.00 0.00 48 1013.6
20260506003051 72 249 0.0 2.6 0.00 0.00 0.00 49 1013.7
20260506002548 72 0 0.0 2.6 0.00 0.00 0.00 48 1013.6
20260506002048 73 0 0.0 0.9 0.00 0.00 0.00 47 1013.7
20260506001553 73 0 0.0 1.7 0.00 0.00 0.00 47 1013.8
20260506001048 73 0 0.0 3.5 0.00 0.00 0.00 46 1013.8
20260506000547 74 253 0.0 3.5 0.00 0.00 0.00 45 1013.7
20260506000058 74 195 0.0 3.5 0.00 0.00 0.00 46 1013.6
20260505235549 74 250 0.0 3.5 0.00 0.00 0.00 45 1013.6
20260505235048 74 296 0.0 4.3 0.00 0.00 0.00 46 1013.5
20260505234546 74 240 0.0 4.3 0.00 0.00 0.00 44 1013.5
20260505234048 75 268 0.9 4.3 0.00 0.00 0.00 43 1013.6
20260505233547 75 253 0.0 5.2 0.00 0.00 0.00 43 1013.5
20260505233048 75 0 0.0 5.2 0.00 0.00 0.00 43 1013.5
20260505232547 75 0 0.0 6.1 0.00 0.00 0.00 43 1013.5
20260505232047 76 282 0.9 6.1 0.00 0.00 0.00 42 1013.5
20260505231547 76 265 1.7 6.1 0.00 0.00 0.00 41 1013.7
20260505231046 76 219 0.0 4.3 0.00 0.00 0.00 41 1013.5
20260505230547 76 248 0.9 5.2 0.00 0.00 0.00 42 1013.6
20260505230052 76 192 0.9 5.2 0.00 0.00 0.00 41 1013.2
20260505225547 75 267 0.0 4.3 0.00 0.00 0.00 42 1013.4
20260505225048 76 0 0.0 5.2 0.00 0.00 0.00 43 1013.4
20260505224553 76 228 0.9 6.1 0.00 0.00 0.00 42 1013.3
20260505224049 77 0 0.9 7.8 0.00 0.00 0.00 41 1013.4
20260505223547 77 259 1.7 7.8 0.00 0.00 0.00 39 1013.4
20260505223054 76 252 0.0 4.3 0.00 0.00 0.00 40 1013.3
20260505222547 76 0 0.0 4.3 0.00 0.00 0.00 40 1013.3
20260505222047 76 246 0.0 1.7 0.00 0.00 0.00 43 1013.3
20260505221600 76 0 0.0 2.6 0.00 0.00 0.00 41 1013.4
20260505221050 77 237 0.0 7.0 0.00 0.00 0.00 40 1013.4
20260505220548 77 0 1.7 7.0 0.00 0.00 0.00 39 1013.3
20260505220050 77 227 0.9 7.0 0.00 0.00 0.00 39 1013.4
20260505215548 77 0 0.9 5.2 0.00 0.00 0.00 39 1013.1
20260505215047 77 96 0.9 6.1 0.00 0.00 0.00 41 1013.0
20260505214555 78 105 0.9 6.1 0.00 0.00 0.00 40 1013.1
20260505214050 79 225 1.7 6.1 0.00 0.00 0.00 38 1013.3
20260505213547 80 202 1.7 6.1 0.00 0.00 0.00 37 1013.3
20260505213054 80 253 0.9 7.0 0.00 0.00 0.00 38 1013.2
20260505212547 80 0 2.6 7.0 0.00 0.00 0.00 37 1013.3
20260505212047 81 267 0.9 5.2 0.00 0.00 0.00 37 1013.4
20260505211551 80 236 1.7 5.2 0.00 0.00 0.00 39 1013.4
20260505211047 79 250 0.0 5.2 0.00 0.00 0.00 39 1013.5
20260505210546 79 88 0.9 9.6 0.00 0.00 0.00 41 1013.5
20260505210052 81 165 1.7 9.6 0.00 0.00 0.00 38 1013.5
20260505205548 80 224 2.6 9.6 0.00 0.00 0.00 37 1013.4
20260505205047 80 250 0.9 7.0 0.00 0.00 0.00 38 1013.5
20260505204554 79 226 1.7 7.8 0.00 0.00 0.00 40 1013.8
20260505204046 79 133 0.9 7.8 0.00 0.00 0.00 38 1013.8
20260505203546 80 215 1.7 6.1 0.00 0.00 0.00 38 1013.7
20260505203052 80 94 0.9 10.4 0.00 0.00 0.00 38 1013.7
20260505202546 80 226 2.6 10.4 0.00 0.00 0.00 38 1014.0
20260505202047 81 153 0.9 6.1 0.00 0.00 0.00 37 1013.9
20260505201555 79 229 1.7 4.3 0.00 0.00 0.00 40 1014.1
20260505201047 81 0 0.9 7.0 0.00 0.00 0.00 39 1014.1
20260505200548 80 269 1.7 7.8 0.00 0.00 0.00 38 1014.1
20260505200051 81 0 1.7 7.8 0.00 0.00 0.00 38 1014.1
20260505195547 79 257 0.9 3.5 0.00 0.00 0.00 42 1014.3
20260505195047 79 210 0.0 7.8 0.00 0.00 0.00 37 1014.4
20260505194558 81 340 0.9 7.8 0.00 0.00 0.00 39 1014.5
20260505194047 81 300 0.9 7.0 0.00 0.00 0.00 39 1014.7
20260505193546 80 221 0.9 7.8 0.00 0.00 0.00 39 1014.7
20260505193119 80 250 2.6 7.8 0.00 0.00 0.00 38 1014.9
20260505192547 79 263 1.7 6.1 0.00 0.00 0.00 41 1014.7
20260505192048 79 302 0.9 6.1 0.00 0.00 0.00 44 1014.8
20260505191559 78 260 1.7 5.2 0.00 0.00 0.00 45 1014.7
20260505191048 77 101 0.9 3.5 0.00 0.00 0.00 42 1014.7
20260505190548 77 274 0.9 3.5 0.00 0.00 0.00 44 1014.9
20260505190054 78 0 0.9 3.5 0.00 0.00 0.00 42 1014.8
20260505185547 77 93 0.9 3.5 0.00 0.00 0.00 45 1014.9
20260505185047 78 321 0.9 7.0 0.00 0.00 0.00 44 1015.0
20260505184556 77 241 1.7 8.7 0.00 0.00 0.00 43 1015.0
20260505184047 78 236 0.9 8.7 0.00 0.00 0.00 44 1015.0
20260505183547 77 323 0.9 7.8 0.00 0.00 0.00 44 1015.0
20260505183052 77 234 1.7 11.3 0.00 0.00 0.00 45 1015.1
20260505182548 78 0 1.7 11.3 0.00 0.00 0.00 43 1015.0
20260505182047 78 254 1.7 8.7 0.00 0.00 0.00 45 1015.1
20260505181553 78 221 0.9 7.0 0.00 0.00 0.00 46 1015.2
20260505181051 77 263 0.9 2.6 0.00 0.00 0.00 46 1015.3
20260505180546 77 265 0.0 2.6 0.00 0.00 0.00 45 1015.4
20260505180051 78 0 0.0 7.0 0.00 0.00 0.00 45 1015.6
20260505175548 77 238 0.9 7.8 0.00 0.00 0.00 43 1015.6
20260505175048 78 261 2.6 7.8 0.00 0.00 0.00 39 1015.8
20260505174553 79 238 1.7 7.0 0.00 0.00 0.00 43 1015.7
20260505174049 79 232 0.9 7.0 0.00 0.00 0.00 42 1015.6
20260505173547 78 213 2.6 7.0 0.00 0.00 0.00 45 1016.0
20260505173053 79 234 0.9 7.0 0.00 0.00 0.00 46 1016.0
20260505172547 79 243 0.9 7.0 0.00 0.00 0.00 47 1016.1
20260505172048 78 246 2.6 7.0 0.00 0.00 0.00 45 1016.1
20260505171554 78 285 0.9 8.7 0.00 0.00 0.00 45 1016.0
20260505171048 78 109 1.7 8.7 0.00 0.00 0.00 43 1016.0
20260505170549 78 194 1.7 7.8 0.00 0.00 0.00 43 1016.1
20260505170055 77 229 2.6 9.6 0.00 0.00 0.00 42 1016.1
20260505165548 76 288 0.9 9.6 0.00 0.00 0.00 44 1016.1
20260505165047 76 200 1.7 9.6 0.00 0.00 0.00 45 1016.2
20260505164557 76 298 0.9 9.6 0.00 0.00 0.00 45 1016.2
20260505164048 76 136 0.9 10.4 0.00 0.00 0.00 45 1016.0
20260505163548 76 113 2.6 12.2 0.00 0.00 0.00 43 1016.1
20260505163052 76 350 2.6 12.2 0.00 0.00 0.00 42 1015.9
20260505162548 77 40 0.9 7.8 0.00 0.00 0.00 41 1015.9
20260505162047 76 243 2.6 8.7 0.00 0.00 0.00 41 1016.1
20260505161552 76 237 2.6 8.7 0.00 0.00 0.00 42 1016.0
20260505161049 76 226 2.6 8.7 0.00 0.00 0.00 41 1016.2
20260505160547 76 217 1.7 7.8 0.00 0.00 0.00 46 1016.0
20260505153108 73 123 1.7 6.1 0.00 0.00 0.00 53 1016.4
20260505152548 74 0 0.0 7.0 0.00 0.00 0.00 50 1016.4
20260505152046 74 328 0.9 7.0 0.00 0.00 0.00 53 1016.4
20260505151558 74 257 0.9 6.1 0.00 0.00 0.00 53 1016.3
20260505151050 73 0 0.0 2.6 0.00 0.00 0.00 51 1016.2
20260505150549 73 211 0.0 1.7 0.00 0.00 0.00 55 1016.3
20260505140546 69 240 0.0 0.9 0.00 0.00 0.00 64 1016.3
20260505130116 59 0 0.0 1.7 0.00 0.00 0.00 78 1016.0
20260505124608 56 0 0.0 0.9 0.00 0.00 0.00 84 1015.8
20260505124049 55 0 0.0 0.0 0.00 0.00 0.00 86 1015.8
20260505123552 54 0 0.0 0.0 0.00 0.00 0.00 86 1015.8
20260505123115 54 0 0.0 0.0 0.00 0.00 0.00 87 1015.6
20260505122549 54 0 0.0 0.9 0.00 0.00 0.00 87 1015.5
20260505122047 53 0 0.0 0.9 0.00 0.00 0.00 87 1015.4
20260505121549 53 0 0.0 0.9 0.00 0.00 0.00 88 1015.4
20260505121052 52 0 0.0 0.9 0.00 0.00 0.00 88 1015.3
20260505120548 52 0 0.0 0.9 0.00 0.00 0.00 89 1015.4
20260505120101 52 0 0.0 0.9 0.00 0.00 0.00 88 1015.5
20260505115546 51 0 0.0 0.9 0.00 0.00 0.00 88 1015.5
20260505115047 51 0 0.0 0.9 0.00 0.00 0.00 88 1015.6
20260505114553 51 346 0.0 0.9 0.00 0.00 0.00 88 1015.4
20260505114047 50 0 0.0 0.9 0.00 0.00 0.00 89 1015.4
20260505113552 50 0 0.0 0.9 0.00 0.00 0.00 89 1015.3
20260505113059 50 0 0.0 0.9 0.00 0.00 0.00 89 1015.1
20260505112548 50 0 0.0 0.9 0.00 0.00 0.00 90 1015.1
20260505112048 50 0 0.0 0.9 0.00 0.00 0.00 89 1015.1
20260505111553 50 0 0.0 0.9 0.00 0.00 0.00 89 1014.9
20260505111048 49 0 0.0 0.9 0.00 0.00 0.00 88 1014.7
20260505110547 49 0 0.0 0.9 0.00 0.00 0.00 89 1014.9
20260505102048 50 0 0.0 0.9 0.00 0.00 0.00 89 1014.7
20260505101557 50 0 0.0 0.9 0.00 0.00 0.00 88 1014.7
20260505101047 50 0 0.0 0.9 0.00 0.00 0.00 87 1014.7
20260505100547 50 0 0.0 0.9 0.00 0.00 0.00 87 1014.7
20260505100056 50 0 0.0 0.9 0.00 0.00 0.00 87 1014.9
20260505095548 50 0 0.0 0.0 0.00 0.00 0.00 87 1015.0
20260505095047 50 0 0.0 0.0 0.00 0.00 0.00 87 1015.1
20260505094556 50 0 0.0 0.0 0.00 0.00 0.00 87 1015.0
20260505094047 50 0 0.0 0.0 0.00 0.00 0.00 87 1015.0
20260505093547 50 0 0.0 0.9 0.00 0.00 0.00 87 1014.7
20260505093058 50 0 0.0 0.9 0.00 0.00 0.00 87 1014.9
20260505092548 50 0 0.0 0.9 0.00 0.00 0.00 87 1014.9
20260505092048 50 0 0.0 0.9 0.00 0.00 0.00 86 1014.7
20260505091618 50 0 0.0 0.9 0.00 0.00 0.00 86 1014.8
20260505091047 50 0 0.0 0.9 0.00 0.00 0.00 86 1014.7
20260505090547 50 0 0.0 0.9 0.00 0.00 0.00 86 1015.0
20260505090119 50 0 0.0 0.0 0.00 0.00 0.00 86 1015.2
20260505085548 50 0 0.0 0.0 0.00 0.00 0.00 86 1015.0
20260505085051 50 0 0.0 0.0 0.00 0.00 0.00 85 1015.1
20260505084607 50 0 0.0 0.0 0.00 0.00 0.00 85 1015.0
20260505084047 50 0 0.0 0.0 0.00 0.00 0.00 85 1015.2
20260505083551 50 0 0.0 0.0 0.00 0.00 0.00 85 1015.1
20260505083105 50 0 0.0 0.0 0.00 0.00 0.00 85 1015.1
20260505082547 50 0 0.0 0.0 0.00 0.00 0.00 85 1014.9
20260505082047 50 0 0.0 0.0 0.00 0.00 0.00 85 1015.0
20260505081559 50 0 0.0 0.0 0.00 0.00 0.00 85 1014.9
20260505081047 50 0 0.0 0.0 0.00 0.00 0.00 84 1015.0
20260505080551 50 0 0.0 0.0 0.00 0.00 0.00 84 1015.0
20260505080059 51 0 0.0 0.0 0.00 0.00 0.00 83 1014.9
20260505075548 51 0 0.0 0.9 0.00 0.00 0.00 83 1015.1
20260505075048 51 0 0.0 0.9 0.00 0.00 0.00 83 1014.9
20260505074549 51 0 0.0 0.9 0.00 0.00 0.00 83 1015.1
20260505074048 51 0 0.0 0.9 0.00 0.00 0.00 83 1015.0
20260505073548 51 0 0.0 0.9 0.00 0.00 0.00 83 1015.0
20260505073055 51 0 0.0 0.9 0.00 0.00 0.00 83 1015.1
20260505072546 51 0 0.0 0.0 0.00 0.00 0.00 82 1015.0
20260505072046 51 0 0.0 0.0 0.00 0.00 0.00 82 1015.1
20260505071603 51 0 0.0 0.9 0.00 0.00 0.00 82 1015.1
20260505071052 51 0 0.0 0.9 0.00 0.00 0.00 82 1015.2
20260505070548 52 0 0.0 0.9 0.00 0.00 0.00 82 1015.0
20260505070054 52 0 0.0 0.9 0.00 0.00 0.00 82 1015.1
20260505065548 52 0 0.0 0.9 0.00 0.00 0.00 82 1015.2
20260505065047 52 0 0.0 0.9 0.00 0.00 0.00 82 1015.0
20260505064550 52 0 0.0 0.9 0.00 0.00 0.00 81 1015.0
20260505064051 52 0 0.0 0.0 0.00 0.00 0.00 81 1015.1
20260505063550 52 0 0.0 0.0 0.00 0.00 0.00 81 1015.0
20260505063053 52 0 0.0 0.0 0.00 0.00 0.00 81 1015.2
20260505062548 52 0 0.0 0.0 0.00 0.00 0.00 81 1015.3
20260505062047 52 0 0.0 0.0 0.00 0.00 0.00 81 1015.2
20260505061552 53 0 0.0 0.9 0.00 0.00 0.00 80 1015.3
20260505061047 53 0 0.0 0.9 0.00 0.00 0.00 80 1015.3
20260505060548 53 346 0.0 0.9 0.00 0.00 0.00 80 1015.2
20260505060058 53 346 0.0 0.9 0.00 0.00 0.00 79 1015.2
20260505055548 53 0 0.0 0.0 0.00 0.00 0.00 80 1015.2
20260505055046 53 0 0.0 0.0 0.00 0.00 0.00 79 1015.3
20260505054553 53 0 0.0 0.0 0.00 0.00 0.00 79 1015.2
20260505054048 53 0 0.0 0.0 0.00 0.00 0.00 79 1015.2
20260505053546 53 0 0.0 0.0 0.00 0.00 0.00 79 1015.3
20260505053059 53 0 0.0 0.0 0.00 0.00 0.00 79 1015.4
20260505052547 53 0 0.0 0.0 0.00 0.00 0.00 78 1015.4
20260505052047 53 0 0.0 0.0 0.00 0.00 0.00 78 1015.3
20260505051556 53 0 0.0 0.0 0.00 0.00 0.00 78 1015.4
20260505051048 54 0 0.0 0.0 0.00 0.00 0.00 78 1015.5
20260505050548 54 0 0.0 0.0 0.00 0.00 0.00 77 1015.4
20260505041555 55 0 0.0 0.0 0.00 0.00 0.00 74 1015.2
20260505041048 55 0 0.0 0.0 0.00 0.00 0.00 73 1015.2
20260505040547 55 0 0.0 0.0 0.00 0.00 0.00 73 1015.2
20260505040058 56 0 0.0 0.0 0.00 0.00 0.00 72 1015.1
20260505035548 56 0 0.0 0.0 0.00 0.00 0.00 72 1015.1
20260505035048 56 0 0.0 0.9 0.00 0.00 0.00 71 1015.2
20260505034554 56 0 0.0 0.9 0.00 0.00 0.00 70 1015.2
20260505034048 57 0 0.0 0.0 0.00 0.00 0.00 70 1015.4